#timestamp,LO_Frequency,Hit,StdDev 
1683885615.3,286047000.7,N
1683885635.1,286046998.8,N
1683885655.8,286046998.7,N
1683885675.7,286046998.8,N
1683885695.5,286046999.3,N
1683885715.4,286046999.6,N
1683885735.2,286046998.6,N
1683885755.0,286046998.9,N
1683885755.9,286046998.9,N
1683885775.8,286046997.2,Y
1683885795.6,286046998.2,P
1683885815.4,286047001.2,N
1683885835.3,286047002.3,N
1683885855.1,286047000.1,N
1683885875.9,286047000.6,N
1683885895.7,286046998.4,N
1683885915.5,286047000.6,N
1683885935.4,286047000.7,N
1683885955.2,286047000.0,N
1683885975.1,286047000.0,N
1683885976.0,286047000.0,N
1683885995.8,286046998.5,N
1683886015.6,286046997.0,N
1683886035.5,286046998.7,N
1683886055.3,286046998.7,N
1683886075.1,286046996.5,N
1683886095.9,286046998.8,N
1683886115.7,286046998.7,N
1683886135.6,286047000.8,N
1683886155.4,286047000.9,N
1683886175.2,286046998.7,N
1683886195.1,286046999.1,N
1683886196.0,286046999.1,N
1683886215.8,286046999.2,N
1683886235.7,286046996.6,N
1683886255.5,286046998.3,N
1683886275.3,286046998.7,N
1683886295.2,286046998.2,N
1683886315.9,286046998.2,N
1683886335.7,286046998.4,N
1683886355.6,286046998.3,N
1683886375.4,286046997.4,N
1683886395.3,286046997.1,N
1683886415.1,286046997.7,N
1683886416.0,286046997.7,N
1683886435.8,286046996.6,N
1683886455.7,286046998.5,N
1683886475.5,286047001.1,N
1683886495.3,286047000.9,N
1683886515.2,286046999.4,N
1683886535.0,286046998.7,N
1683886535.9,286046998.7,N
1683886555.8,286046999.5,N
1683886575.6,286046999.6,N
1683886595.4,286046997.1,N
1683886615.3,286046997.3,N
1683886635.1,286046997.5,N
1683886655.8,286046997.8,N
1683886675.7,286046998.0,N
1683886695.5,286046994.9,Y
1683886715.4,286046999.2,P
1683886735.2,286046997.0,P
1683886755.0,286046996.7,P
1683886755.9,286046996.7,Y
1683886775.8,286047000.1,P
1683886795.6,286047002.5,N
1683886815.5,286047002.6,N
1683886835.3,286047001.8,N
1683886855.1,286047001.7,N
1683886875.9,286046999.7,N
1683886895.7,286047002.4,N
1683886915.6,286047002.6,N
1683886935.4,286047002.3,N
1683886955.2,286047002.5,N
1683886975.1,286046999.8,N
1683886976.0,286046999.8,N
1683886995.8,286047000.3,N
1683887015.6,286047000.0,N
1683887035.5,286047000.0,N
1683887055.3,286047002.2,N
1683887075.2,286047004.3,Y
1683887095.9,286047001.4,P
1683887115.7,286047003.9,P
1683887135.6,286047003.7,N
1683887155.4,286047006.0,Y
1683887175.3,286047001.8,P
1683887195.1,286047001.3,P
1683887196.0,286047001.3,N
1683887215.8,286047004.2,Y
1683887235.7,286047001.5,P
1683887255.5,286047002.2,P
1683887275.3,286046999.7,N
1683887295.2,286047000.3,N
1683887315.0,286047001.0,N
1683887315.9,286047001.0,N
1683887335.8,286046999.7,N
1683887355.6,286047001.0,N
1683887375.4,286047000.2,N
1683887395.3,286047001.6,N
1683887415.1,286047001.6,N
1683887435.9,286047004.2,Y
1683887455.7,286047002.8,P
1683887475.5,286047002.8,P
1683887495.4,286047002.2,N
1683887515.2,286047001.5,N
1683887535.1,286047001.9,N
1683887536.0,286047001.9,N
1683887555.8,286047003.6,Y
1683887575.6,286046999.7,P
1683887595.5,286046999.8,N
1683887615.3,286047002.2,N
1683887635.1,286047002.1,N
1683887655.9,286047001.6,N
1683887675.7,286047002.5,N
1683887695.6,286047002.6,N
1683887715.4,286047002.0,N
1683887735.2,286047002.1,N
1683887755.1,286047002.1,N
1683887756.0,286047002.1,N
1683887775.8,286047001.9,N
1683887795.7,286047004.4,Y
1683887815.5,286047000.4,P
1683887835.3,286047000.1,N
1683887855.2,286047000.6,N
1683887875.0,286046998.1,Y
1683887875.9,286046998.1,P
1683887895.8,286046998.4,N
1683887915.6,286047000.4,N
1683887935.4,286047000.7,N
1683887955.3,286047000.6,N
1683887975.1,286046998.2,N
1683887995.8,286047001.0,N
1683888015.7,286047001.0,N
1683888035.5,286047000.8,N
1683888055.4,286047000.0,N
1683888075.2,286046999.8,N
1683888095.0,286047000.9,N
1683888095.9,286047000.9,N
1683888115.8,286047000.6,N
1683888135.6,286047000.3,N
1683888155.4,286047000.7,N
1683888175.3,286046998.1,N
1683888195.1,286046998.7,N
1683888215.9,286046998.1,N
1683888235.7,286047000.8,N
1683888255.5,286047000.4,N
1683888275.4,286046999.8,N
1683888295.2,286047000.9,N
1683888315.0,286047000.1,N
1683888315.9,286047000.1,N
1683888335.8,286046999.8,N
1683888355.6,286047002.8,N
1683888375.5,286047002.5,N
1683888395.3,286047002.3,N
1683888415.1,286047000.2,N
1683888435.9,286047000.6,N
1683888455.7,286047000.5,N
1683888475.6,286047002.7,N
1683888495.4,286046999.9,N
1683888515.2,286047000.4,N
1683888535.1,286047000.4,N
1683888536.0,286047000.4,N
1683888555.8,286047000.3,N
1683888575.7,286047000.3,N
1683888595.5,286047002.5,N
1683888615.3,286047000.2,N
1683888635.2,286047000.2,N
1683888655.9,286047002.4,N
1683888675.7,286047002.0,N
1683888695.6,286046999.8,N
1683888715.4,286046999.8,N
1683888735.3,286047001.9,N
1683888755.1,286047001.5,N
1683888756.0,286047001.5,N
1683888775.8,286047001.9,N
1683888795.7,286047001.4,N
1683888815.5,286047001.6,N
1683888835.3,286047001.4,N
1683888855.2,286047001.8,N
1683888875.0,286047001.4,N
1683888875.9,286047001.4,N
1683888895.8,286047001.3,N
1683888915.6,286047004.4,Y
1683888935.4,286047002.7,P
1683888955.3,286047002.6,P
1683888975.1,286047002.6,P
1683888995.8,286046999.7,N
1683889015.7,286047002.5,N
1683889035.5,286047000.4,N
1683889055.4,286047000.3,N
1683889075.2,286046998.1,N
1683889095.0,286047001.1,N
1683889095.9,286047001.1,N
1683889115.8,286047000.9,N
1683889135.6,286047000.8,N
1683889155.4,286047000.9,N
1683889175.3,286047000.1,N
1683889195.1,286046999.8,N
